Location: Peebles
(55.6412°N, 3.1714°W)
Time: 18:19:35
(UTC+01:00)

Envisat - Pass Details

Date: 26 February 2024
Orbit: 762 x 764 km, 98.3° (Epoch: 20 April)

Event Time Altitude Azimuth Distance (km) Brightness Sun altitude
Rises 04:28:09 0° 14° (NNE) 3,247 6.7 -23.7°
Reaches altitude 10° 04:30:29 10° 10° (N) 2,316 5.8 -23.4°
Maximum altitude 04:35:29 59° 292° (WNW) 885 3.0 -22.7°
Enters shadow 04:36:00 56° 266° (W) 912 3.0 -22.6°
